Regional Weather Roundup
Issued by NWS Green Bay, WI

Home | Current Version | Previous Version | Graphics & Text | Print | Product List | Glossary Off
Versions: 1 2 3 4 5 6 7 8 9 10 11 12 13 14 15 16 17 18 19 20 21 22 23 24 25 26 27 28 29 30 31 32 33 34 35 36 37 38 39 40 41 42 43 44 45 46 47 48 49 50

000
ASUS43 KGRB 260711
RWRGRB

NORTH-CENTRAL AND NORTHEAST WISCONSIN REGIONAL WEATHER ROUNDUP
NATIONAL WEATHER SERVICE GREEN BAY WI
100 AM CST SUN FEB 26 2017

WIZ005-009-010>012-018-019-260800-
NORTH CENTRAL WISCONSIN

CITY           SKY/WX    TMP DP  RH WIND       PRES   REMARKS
IRONWOOD       CLOUDY    22  16  78 SW8       29.72F
MANITOWISH WTR CLOUDY    18  15  88 S7        29.74S WCI   8
ARBOR VITAE    CLOUDY    19  15  82 S8          N/A  WCI   9
EAGLE RIVER    CLEAR     17  10  76 SW8       29.76S WCI   6
LAND O LAKES   MOCLDY    17  13  84 CALM      29.76F
RHINELANDER    CLOUDY    17  11  77 SW10      29.78F WCI   5
PHILLIPS       CLOUDY    19  13  79 SW8       29.77S WCI   9
ANTIGO         CLOUDY    15  10  81 SW13      29.82S WCI   1
TOMAHAWK       CLOUDY    18  12  78 S3        29.80S
MERRILL        NOT AVBL
$$

WIZ013-073-260800-
NORTHEAST WISCONSIN

CITY           SKY/WX    TMP DP  RH WIND       PRES   REMARKS
IRON MOUNTAIN  CLEAR     18   8  65 SW8       29.80R WCI   8
MARINETTE      CLEAR     16   9  74 SW7       29.90S WCI   6
OCONTO         MOCLDY    18   9  68 SW7       29.90F WCI   9
$$

WIZ017-030-035>037-045-260800-
CENTRAL WISCONSIN

CITY           SKY/WX    TMP DP  RH WIND       PRES   REMARKS
MEDFORD        CLOUDY    17  11  76 SW9G17    29.81S WCI   6
WAUSAU         CLOUDY    17  11  77 SW12      29.84F WCI   4
MOSINEE        CLOUDY    18  14  86 SW8       29.87S WCI   7
MARSHFIELD     FLURRIES  19  12  74 SW10      29.85F WCI   7
WISC RAPIDS    CLOUDY    20  13  74 SW13      29.91S WCI   7
STEVENS POINT  CLOUDY    14   9  81 SW6       29.89F WCI   5
WAUPACA        PTCLDY    16  10  77 S3        29.92S
SHAWANO        MOCLDY    17  10  74 CALM      29.90S
CLINTONVILLE   MOCLDY    16   9  73 S6        29.90S WCI   7
WAUTOMA        PTCLDY    16  11  80 SW6       29.94S WCI   7
$$

WIZ038-039-048-051-260800-
FOX VALLEY

CITY           SKY/WX    TMP DP  RH WIND       PRES   REMARKS
NWS GREEN BAY  CLEAR     19  12  74 S7        29.92F WCI  10
APPLETON       PTCLDY    19  10  68 SW8       29.90S WCI   9
OSHKOSH        MOCLDY    16  10  77 S10       29.93F WCI   4
FOND DU LAC    CLEAR     19  11  70 SW8       29.95F WCI   9
$$

WIZ022-050-052-260800-
EAST CENTRAL WISCONSIN

CITY           SKY/WX    TMP DP  RH WIND       PRES   REMARKS
EPHRAIM        FAIR      20  15  81 W6        29.88S
WASHINGTON ISL FAIR      23  14  68 SW10G16   29.87S
STURGEON BAY   CLEAR     18  11  74 SW12      29.91S WCI   5
MANITOWOC      CLEAR     19  11  70 W7        29.94F WCI  10
SHEBOYGAN      CLEAR     18  11  74 W8        29.95S WCI   8
$$

LMZ563-521-522-541>543-260800-
LAKESHORE

STATION/POSITION TIME  TEMP    WIND        PRES    VSBY  WAVE
                       AIR SEA DIR/SP/G                  HT/PER
                 (UTC) (F)     (DEG/KT/KT) (MB)    (MI)  (FT/S)
SHEBOYGAN LKSHOR 0700   22     250/  8/ 10 1015.4F
KEWAUNEE LKSHORE 0648   21     270/  8/ 14 1013.1R
ALGOMA MARINA    0556             CALM       N/A
NORTHPORT PIER   0640   21        CALM     1012.2S
SISTER BAY LKSHO 0635   21        CALM       N/A
MENOMINEE LKSHOR 0648   19     210/ 10/ 13 1011.6S
$$




USA.gov is the U.S. government's official web portal to all federal, state and local government web resources and services.